Tracking 27380 objects as of 5-Jun-2023
HD Live streaming from Space Station
objects crossing your sky now

DELTA 1 DEB

Track DELTA 1 DEB now!
10-day predictions


NORAD ID: 7160
Int'l Code: 1973-086DY
Perigee: 1,475.8 km
Apogee: 1,598.2 km
Inclination: 102.0 °
Period: 116.6 minutes
Semi major axis: 7907 km
RCS: 0.0715 m2 (small)
Launch date: November 6, 1973
Source: United States (US)
Launch site: AIR FORCE WESTERN TEST RANGE (AFWTR)

Note: This is SATELLITE DEBRIS
Your satellite tracking list
Your tracking list is empty




NASA's NSSDC Master Catalog

Two Line Element Set (TLE):
1 07160U 73086DY  23156.35203361  .00000152  00000-0  15615-2 0  9996
2 07160 102.0273 124.4656 0077387 224.9667 296.1769 12.34533406229034
Source of the keplerian elements: AFSPC